Lubbock, TX

11:38 PM CST on December 15, 2019 (GMT -0600)
Lubbock International

Weather History for KLBB - November, 2019

Change the Weather History Date:

Thursday, November 21, 2019

  Actual Average Record
Temperature  
Mean Temperature 48 °F 47 °F  
Max Temperature 57 °F 61 °F 84 °F (1927)
Min Temperature 38 °F 33 °F 18 °F (1956)
Degree Days  
Heating Degree Days 18 18  
Month to date heating degree days 317 283  
Since 1 July heating degree days 612 465  
Cooling Degree Days 0 0  
Month to date cooling degree days 0 0  
Year to date cooling degree days 2160 1801  
Moisture  
Dew Point 44 °F    
Average Humidity 87    
Maximum Humidity 100    
Minimum Humidity 71    
Precipitation  
Precipitation 0.06 in 0.03 in 0.87 in (1992)
Month to date precipitation 0.65 0.62  
Year to date precipitation 23.32 18.13  
Snow  
Snow - 0.00 in 2.00 in (1957)
Month to date snowfall 0.0 0.5  
Since 1 July snowfall 0.1 0.5  
Since 1 September snowfall 0.1 0.5  
Snow Depth 0.00 in    
Sea Level Pressure  
Sea Level Pressure 29.95 in    
Wind  
Wind Speed 10 mph ()    
Max Wind Speed 20 mph    
Max Gust Speed 24 mph    
Visibility 5.5 miles    
Events Fog , Rain    
T = Trace of Precipitation, MM = Missing Value Source: Averaged Metar Reports

Daily Weather History Graph

Daily Weather History Graph

Search for Another Location

Airport or City:

Astronomy

Nov. 21, 2019 Rise Set
Actual Time 7:24 AM CST 5:41 PM CST
Civil Twilight 6:57 AM CST 6:08 PM CST
Nautical Twilight 6:27 AM CST 6:38 PM CST
Astronomical Twilight 5:57 AM CST 7:08 PM CST
Moon 1:44 AM CST (11/21) 2:52 PM CST (11/21)
Length of Visible Light 11h 10m
Length of Day
10h 16m
Waning Crescent, 29% of the Moon is Illuminated
Nov 21
Waning Crescent
Nov 26
New
Dec 4
First Quarter
Dec 11
Full
Dec 18
Last Quarter

Hourly Weather History & Observations

Time (CST) Temp. Windchill Dew Point Humidity Pressure Visibility Wind Dir Wind Speed Gust Speed Precip Events Conditions
12:15 AM 57.0 °F - 55.0 °F 93% 29.92 in 2.5 mi SSW 12.7 mph - N/A   Overcast
12:23 AM 57.0 °F - 55.0 °F 93% 29.92 in 3.0 mi SSW 15.0 mph - N/A   Overcast
12:53 AM 57.0 °F - 55.0 °F 93% 29.81 in 3.0 mi SSW 13.8 mph - N/A   Mostly Cloudy
1:22 AM 55.9 °F - 54.0 °F 93% 29.91 in 4.0 mi SSW 11.5 mph - N/A   Mostly Cloudy
1:53 AM 55.9 °F - 54.0 °F 93% 29.83 in 4.0 mi SSW 6.9 mph - N/A   Overcast
2:53 AM 55.0 °F - 54.0 °F 96% 29.83 in 2.0 mi SW 9.2 mph - N/A   Overcast
3:19 AM 55.0 °F - 54.0 °F 96% 29.93 in 4.0 mi SSW 9.2 mph - N/A   Overcast
3:53 AM 55.0 °F - 53.1 °F 93% 29.84 in 3.0 mi Calm Calm - N/A   Overcast
4:25 AM 55.0 °F - 53.1 °F 93% 29.94 in 1.5 mi Calm Calm - N/A   Overcast
4:32 AM 55.0 °F - 53.1 °F 93% 29.93 in 1.2 mi Calm Calm - N/A   Overcast
4:35 AM 55.0 °F - 53.1 °F 93% 29.93 in 0.2 mi Calm Calm - N/A Fog Fog
4:53 AM 54.0 °F - 53.1 °F 97% 29.83 in 0.2 mi Calm Calm - N/A Fog Fog
5:42 AM 53.1 °F - 52.0 °F 96% 29.94 in 0.5 mi Calm Calm - N/A Fog Fog
5:53 AM 53.1 °F - 52.0 °F 96% 29.86 in 0.2 mi SE 4.6 mph - N/A Fog Fog
6:20 AM 53.1 °F - 52.0 °F 96% 29.95 in 0.1 mi North 8.1 mph - N/A Fog Fog
6:27 AM 53.1 °F - 52.0 °F 96% 29.95 in 0.2 mi North 11.5 mph - N/A Fog Fog
6:30 AM 53.6 °F - 51.8 °F 94% 29.95 in 0.5 mi North 9.2 mph - N/A Fog Fog
6:53 AM 50.0 °F - 48.9 °F 96% 29.89 in 0.5 mi North 10.4 mph - 0.00 in   Light Drizzle
7:00 AM 50.0 °F - 48.0 °F 93% 29.97 in 4.0 mi North 13.8 mph - 0.00 in   Light Drizzle
7:33 AM 43.0 °F 34.8 °F 39.9 °F 89% 29.99 in 10.0 mi North 18.4 mph - 0.00 in   Mostly Cloudy
7:53 AM 44.1 °F 36.2 °F 39.0 °F 82% 29.93 in 10.0 mi NNE 18.4 mph - 0.00 in   Overcast
8:15 AM 44.1 °F 37.4 °F 37.9 °F 79% 29.99 in 10.0 mi NNE 13.8 mph - N/A   Overcast
8:34 AM 44.1 °F 36.5 °F 37.9 °F 79% 30.00 in 10.0 mi NNE 17.3 mph 24.2 mph N/A   Overcast
8:53 AM 44.1 °F 36.8 °F 37.0 °F 76% 29.95 in 10.0 mi NNE 16.1 mph - N/A   Overcast
9:53 AM 45.0 °F 39.3 °F 37.0 °F 74% 29.96 in 10.0 mi NNE 11.5 mph - N/A   Overcast
10:53 AM 45.0 °F 38.9 °F 37.0 °F 74% 29.97 in 10.0 mi ENE 12.7 mph - N/A   Overcast
11:53 AM 46.9 °F - 37.9 °F 71% 29.94 in 10.0 mi ENE 11.5 mph - N/A   Overcast
12:53 PM 46.0 °F 39.9 °F 37.9 °F 73% 29.91 in 10.0 mi ENE 13.8 mph - N/A   Overcast
1:53 PM 46.0 °F 39.9 °F 37.9 °F 73% 29.91 in 10.0 mi NE 13.8 mph - 0.00 in   Light Drizzle
2:53 PM 46.0 °F 40.2 °F 39.0 °F 76% 29.90 in 10.0 mi NE 12.7 mph - 0.00 in   Overcast
3:53 PM 45.0 °F 38.5 °F 39.0 °F 80% 29.88 in 10.0 mi ENE 13.8 mph - N/A   Overcast
4:53 PM 45.0 °F 38.2 °F 37.9 °F 76% 29.91 in 10.0 mi NE 15.0 mph 20.7 mph N/A   Overcast
5:53 PM 45.0 °F 38.9 °F 37.0 °F 74% 29.92 in 10.0 mi ENE 12.7 mph - N/A   Overcast
6:53 PM 43.0 °F 36.4 °F 37.0 °F 80% 29.96 in 10.0 mi NE 12.7 mph - N/A   Overcast
7:16 PM 42.1 °F 34.5 °F 39.0 °F 89% 30.02 in 6.0 mi ENE 15.0 mph - 0.00 in   Light Drizzle
7:53 PM 41.0 °F 33.9 °F 37.0 °F 86% 30.03 in 6.0 mi NE 12.7 mph - 0.00 in   Light Drizzle
8:08 PM 41.0 °F 33.5 °F 37.9 °F 89% 30.12 in 1.0 mi NNW 13.8 mph - 0.00 in   Light Drizzle
8:41 PM 41.0 °F 33.9 °F 39.0 °F 93% 30.09 in 1.0 mi North 12.7 mph - 0.02 in Rain Light Rain
9:53 PM 39.9 °F 31.4 °F 37.0 °F 89% 30.06 in 1.0 mi NNE 16.1 mph 23.0 mph 0.01 in Rain Light Rain
9:55 PM 39.9 °F 31.8 °F 37.0 °F 89% 30.08 in 10.0 mi NNE 15.0 mph - 0.00 in Rain Light Rain
10:15 PM 39.0 °F 30.6 °F 36.0 °F 89% 30.08 in 10.0 mi NNE 15.0 mph - 0.00 in   Overcast
10:53 PM 39.0 °F 32.8 °F 36.0 °F 89% 30.10 in 6.0 mi North 9.2 mph - 0.01 in Rain Rain
11:53 PM 39.0 °F 32.3 °F 36.0 °F 89% 30.08 in 10.0 mi North 10.4 mph - 0.02 in Rain Light Rain